FW1801 Weather Reports


Display with metric or nautical units.
time (UTC)temp
F
wind
direction
speed
MPH
gust
MPH
rain 1hr
in
rain 24hr
in
rain mn
in
humidity
%
barometer
mb
20260421223058 51 176 1.0 3.0 0.00 0.00 0.00 37 1022.6
20260421221556 51 185 0.0 2.0 0.00 0.00 0.00 37 1022.7
20260421220056 51 203 2.0 7.0 0.00 0.00 0.00 35 1022.9
20260421214554 52 179 0.0 6.0 0.00 0.00 0.00 37 1022.9
20260421213056 53 126 2.0 4.0 0.00 0.00 0.00 34 1023.0
20260421211553 52 197 1.0 5.0 0.00 0.00 0.00 34 1022.9
20260421210058 53 150 2.0 7.0 0.00 0.00 0.00 33 1023.4
20260421204552 53 148 0.0 5.0 0.00 0.00 0.00 36 1023.5
20260421203104 51 178 0.0 5.0 0.00 0.00 0.00 34 1023.7
20260421201634 53 142 0.0 7.0 0.00 0.00 0.00 33 1023.8
20260421200045 53 119 0.0 6.0 0.00 0.00 0.00 35 1024.1
20260421194543 50 155 2.0 6.0 0.00 0.00 0.00 34 1024.4
20260421193059 54 250 1.0 5.0 0.00 0.00 0.00 34 1024.6
20260421191542 51 242 3.0 7.0 0.00 0.00 0.00 33 1025.1
20260421190046 51 142 1.0 5.0 0.00 0.00 0.00 34 1025.2
20260421184535 51 147 1.0 7.0 0.00 0.00 0.00 35 1025.3
20260421183042 49 252 2.0 7.0 0.00 0.00 0.00 35 1025.4
20260421181539 52 161 2.0 4.0 0.00 0.00 0.00 36 1025.9
20260421180030 51 71 0.0 5.0 0.00 0.00 0.00 33 1026.1
20260421174528 48 238 1.0 10.0 0.00 0.00 0.00 38 1026.3
20260421173026 50 145 4.0 9.0 0.00 0.00 0.00 34 1026.5
20260421171523 48 215 3.0 8.0 0.00 0.00 0.00 36 1026.8
20260421170022 48 240 2.0 7.0 0.00 0.00 0.00 41 1027.0
20260421164521 46 286 3.0 7.0 0.00 0.00 0.00 39 1027.4
20260421163016 46 169 2.0 7.0 0.00 0.00 0.00 41 1027.8
20260421161513 43 221 3.0 8.0 0.00 0.00 0.00 42 1028.1
20260421160009 43 195 2.0 8.0 0.00 0.00 0.00 41 1028.6
20260421154514 42 250 3.0 8.0 0.00 0.00 0.00 40 1028.7
20260421153003 40 148 4.0 8.0 0.00 0.00 0.00 43 1029.0
20260421151602 39 227 1.0 10.0 0.00 0.00 0.00 46 1029.2
20260421150059 38 184 3.0 10.0 0.00 0.00 0.00 47 1029.3
20260421144557 39 157 3.0 8.0 0.00 0.00 0.00 47 1029.6
20260421143110 38 160 2.0 8.0 0.00 0.00 0.00 48 1030.0
20260421141554 38 206 3.0 9.0 0.00 0.00 0.00 50 1030.1
20260421140106 38 125 2.0 7.0 0.00 0.00 0.00 49 1030.2
20260421134553 37 128 2.0 6.0 0.00 0.00 0.00 54 1030.3
20260421133045 35 184 2.0 11.0 0.00 0.00 0.00 58 1030.4
20260421131550 35 147 1.0 5.0 0.00 0.00 0.00 63 1030.6
20260421130038 33 146 1.0 3.0 0.00 0.00 0.00 77 1030.8
20260421124535 31 39 0.0 4.0 0.00 0.00 0.00 85 1030.9
20260421123028 28 296 0.0 2.0 0.00 0.00 0.00 88 1031.0
20260421121525 26 267 0.0 2.0 0.00 0.00 0.00 90 1031.2
20260421120023 24 230 0.0 0.0 0.00 0.00 0.00 90 1031.3
20260421114526 23 230 0.0 0.0 0.00 0.00 0.00 91 1031.5
20260421113022 22 360 0.0 0.0 0.00 0.00 0.00 91 1031.5
20260421111522 20 229 0.0 0.0 0.00 0.00 0.00 90 1031.4
20260421110020 20 229 0.0 0.0 0.00 0.00 0.00 90 1031.3
20260421104519 20 229 0.0 0.0 0.00 0.00 0.00 90 1031.2
20260421103020 20 229 0.0 0.0 0.00 0.00 0.00 90 1031.1
20260421101516 20 229 0.0 0.0 0.00 0.00 0.00 90 1030.7
20260421100022 20 267 0.0 0.0 0.00 0.00 0.00 89 1030.6
20260421094513 20 268 0.0 0.0 0.00 0.00 0.00 89 1030.4
20260421093011 20 268 0.0 0.0 0.00 0.00 0.00 89 1030.3
20260421091513 20 268 0.0 0.0 0.00 0.00 0.00 89 1030.2
20260421090011 20 268 0.0 0.0 0.00 0.00 0.00 89 1030.1
20260421084510 21 268 0.0 0.0 0.00 0.00 0.00 89 1030.2
20260421083012 21 268 0.0 0.0 0.00 0.00 0.00 89 1030.0
20260421081506 21 268 0.0 0.0 0.00 0.00 0.00 89 1029.9
20260421080005 21 268 0.0 0.0 0.00 0.00 0.00 88 1029.6
20260421074503 21 268 0.0 0.0 0.00 0.00 0.00 88 1029.7
20260421073002 22 268 0.0 0.0 0.00 0.00 0.00 88 1029.6
20260421071501 22 268 0.0 0.0 0.00 0.00 0.00 87 1029.5
20260421070059 22 268 0.0 0.0 0.00 0.00 0.00 87 1029.3
20260421064558 22 268 0.0 0.0 0.00 0.00 0.00 86 1029.4
20260421063058 23 268 0.0 0.0 0.00 0.00 0.00 86 1029.6
20260421061604 23 268 0.0 0.0 0.00 0.00 0.00 86 1029.7
20260421060057 23 268 0.0 0.0 0.00 0.00 0.00 86 1029.7
20260421054611 23 268 0.0 0.0 0.00 0.00 0.00 85 1030.0
20260421053053 24 268 0.0 0.0 0.00 0.00 0.00 85 1030.2
20260421051550 24 268 0.0 0.0 0.00 0.00 0.00 85 1030.1
20260421050053 24 268 0.0 0.0 0.00 0.00 0.00 85 1030.0
20260421044547 25 268 0.0 0.0 0.00 0.00 0.00 84 1030.0
20260421043045 25 268 0.0 0.0 0.00 0.00 0.00 84 1029.9
20260421041543 25 268 0.0 0.0 0.00 0.00 0.00 84 1029.8
20260421040044 26 268 0.0 0.0 0.00 0.00 0.00 84 1029.6
20260421034541 26 268 0.0 0.0 0.00 0.00 0.00 84 1029.6
20260421033039 26 268 0.0 0.0 0.00 0.00 0.00 83 1029.6
20260421031537 26 268 0.0 0.0 0.00 0.00 0.00 82 1029.7
20260421030045 27 268 0.0 0.0 0.00 0.00 0.00 81 1029.7
20260421024538 27 268 0.0 0.0 0.00 0.00 0.00 81 1029.7
20260421023037 28 268 0.0 1.0 0.00 0.00 0.00 80 1029.8
20260421021533 28 268 0.0 1.0 0.00 0.00 0.00 79 1029.7
20260421020030 29 268 0.0 2.0 0.00 0.00 0.00 79 1029.7
20260421014526 29 268 0.0 2.0 0.00 0.00 0.00 78 1029.7
20260421013024 30 268 0.0 2.0 0.00 0.00 0.00 77 1029.5
20260421011523 30 268 0.0 3.0 0.00 0.00 0.00 76 1029.3
20260421010024 30 201 1.0 2.0 0.00 0.00 0.00 77 1029.2
20260421004520 31 201 0.0 2.0 0.00 0.00 0.00 76 1028.9
20260421003019 31 201 0.0 3.0 0.00 0.00 0.00 73 1028.7
20260421001517 31 319 1.0 2.0 0.00 0.00 0.00 72 1028.6
20260421000016 33 319 0.0 2.0 0.00 0.00 0.00 68 1028.3
20260420234516 34 285 0.0 5.0 0.00 0.01 0.00 66 1028.3
20260420233014 34 279 1.0 6.0 0.00 0.01 0.00 65 1028.1
20260420231520 34 225 1.0 5.0 0.00 0.01 0.00 65 1028.1
20260420230012 34 360 0.0 5.0 0.00 0.01 0.00 64 1028.0
20260420224514 34 324 2.0 9.0 0.00 0.03 0.00 64 1028.0